Tracking 19717 objects as of 24-Jun-2019
HD Live streaming from Space Station
objects crossing your sky now

THORAD AGENA D DEB

Track THORAD AGENA D DEB now!
10-day predictions


NORAD ID: 4977
Int'l Code: 1970-025GX
Perigee: 1,056.8 km
Apogee: 1,087.6 km
Inclination: 100.0 °
Period: 106.5 minutes
Semi major axis: 7443 km
RCS: 0.0367 m2 (small)
Launch date: April 8, 1970
Source: United States (US)
Launch site: AIR FORCE WESTERN TEST RANGE (AFWTR)

Note: This is SATELLITE DEBRIS
aabbcc
Your satellite tracking list
Your tracking list is empty




NASA's NSSDC Master Catalog

Two Line Element Set (TLE):
1  4977U 70025GX  19175.17178414 -.00000012  00000-0  52179-4 0  9999
2  4977 100.0499 251.3838 0020712  56.0772 357.9977 13.51963957425750
Source of the keplerian elements: AFSPC